Location: Unspecified
(52.4292°N, 19.3359°E)
Time: 22:08:42
(UTC+02:00)

A-11 Canister half - Pass Details

Date: 20 May 2024
Orbit: 1524 x 1683 km, 47.3° (Epoch: 19 June)

Event Time Altitude Azimuth Distance (km) Brightness Sun altitude
Rises 21:26:44 0° 203° (SSW) 4,677 11.3 -6.2°
Reaches altitude 10° 21:30:16 10° 193° (SSW) 3,712 10.7 -6.6°
Maximum altitude 21:37:52 29° 138° (SE) 2,575 9.6 -7.4°
Drops below altitude 10° 21:45:38 10° 84° (E) 3,815 10.7 -8.2°
Sets 21:49:18 0° 74° (ENE) 4,828 11.4 -8.5°
